User: anonymous   Login
Location: Unspecified
(42.3650°N, 71.1030°W)
Time: 08:12:20
(UTC+00:00)
Language:

Hubble Space Telescope - Orbit

View from above orbital plane
View from above orbital plane
View from above satellite
View from above satellite

Ground track
Ground track

The orbit data is extracted from the following two-line orbital elements,

1 20580U 90037B   24175.69554143  .00005514  00000-0  25572-3 0  9999
2 20580  28.4695 301.5256 0003043 103.4081 256.6851 15.17831856678021
Epoch (UTC): 23 June 2024 16:41:34
Eccentricity: 0.0003043
inclination: 28.4695°
perigee height: 510 km
apogee height: 514 km
right ascension of ascending node: 301.5256°
argument of perigee: 103.4081°
revolutions per day: 15.17831856
mean anomaly at epoch: 256.6851°
orbit number at epoch: 67802

The dashed part of the orbit path shows where the satellite is in the earth's shadow,  

DLR